This demonstration page uses our WeatherBlox Daily Observations layout. Learn more.

Left ArrowRight Arrow

34.02893, -84.19858

Hourly Observations for August 26, 2022

Temp ( °F °C ) Dew Point ( °F °C ) Humidity (%) Winds ( mph kmh ) Pressure ( in mb ) Visibility ( mi km ) Precip ( " mm )
12:53 am 00:53 Mostly Cloudy 70 21.1 69 20.6 97 97 Calm 30.06 1018 10 16 0.00 0.00
1:53 am 01:53 Mostly Cloudy 70 21.1 70 21.1 100 100 Calm 30.06 1018 10 16 0.00 0.00
2:53 am 02:53 Cloudy 71 21.7 70 21.1 96 96 Calm 30.04 1017 10 16 0.00 0.00
3:53 am 03:53 Cloudy 71 21.7 70 21.1 96 96 Calm 30.03 1017 10 16 0.00 0.00
4:53 am 04:53 Cloudy 72 22.2 71 21.7 97 97 WSW 3 6 30.02 1017 10 16 0.00 0.00
5:53 am 05:53 Cloudy 72 22.2 70 21.1 93 93 SW 5 7 30.01 1016 10 16 0.01 0.25
6:53 am 06:53 Cloudy 72 22.2 71 21.7 97 97 Calm 30.02 1017 10 16 0.01 0.25
7:01 am 07:01 Cloudy 72 22.2 71 21.7 97 97 Calm 30.04 1017 9 14 0.00 0.00
7:53 am 07:53 Mostly Sunny 72 22.2 70 21.1 93 93 Calm 30.03 1017 10 16 0.00 0.00
8:28 am 08:28 Mostly Sunny 74 23.3 71 21.7 91 91 NNW 3 6 30.04 1017 10 16 0.00 0.00
8:53 am 08:53 Mostly Cloudy 74 23.3 71 21.7 91 91 W 5 7 30.04 1017 10 16 0.00 0.00
9:13 am 09:13 Mostly Cloudy 75 23.9 71 21.7 88 88 WNW 5 7 30.05 1018 10 16 0.00 0.00
9:53 am 09:53 Mostly Cloudy 78 25.6 71 21.7 79 79 NNW 6 9 30.04 1017 10 16 0.00 0.00
10:06 am 10:06 Cloudy 76 24.4 70 21.1 82 82 VRB 5 7 30.05 1018 10 16 0.00 0.00
10:53 am 10:53 Mostly Cloudy 79 26.1 70 21.1 74 74 WNW 5 7 30.04 1017 10 16 0.00 0.00
11:37 am 11:37 Cloudy 79 26.1 70 21.1 74 74 Calm 30.04 1017 10 16 0.00 0.00
11:53 am 11:53 Cloudy 79 26.1 70 21.1 74 74 Calm 30.04 1017 10 16 0.00 0.00
12:53 pm 12:53 Mostly Cloudy 81 27.2 69 20.6 67 67 Calm 30.02 1017 10 16 0.00 0.00
1:53 pm 13:53 Partly Cloudy 85 29.4 69 20.6 59 59 Calm 30.00 1016 10 16 0.00 0.00
2:53 pm 14:53 Partly Cloudy 87 30.6 70 21.1 57 57 undefined N/A 29.98 1015 10 16 0.00 0.00
3:53 pm 15:53 Mostly Sunny 84 28.9 68 20 59 59 SW 5 7 29.95 1014 10 16 0.00 0.00
4:53 pm 16:53 Sunny 87 30.6 69 20.6 55 55 VRB 5 7 29.93 1013 10 16 0.00 0.00
5:53 pm 17:53 Sunny 87 30.6 69 20.6 55 55 VRB 5 7 29.93 1014 10 16 0.00 0.00
6:53 pm 18:53 Sunny 86 30 68 20 55 55 Calm 29.93 1014 10 16 0.00 0.00
7:53 pm 19:53 Sunny 79 26.1 71 21.7 77 77 Calm 29.93 1014 10 16 0.00 0.00
8:53 pm 20:53 Clear 76 24.4 71 21.7 85 85 Calm 29.95 1014 9 14 0.00 0.00
9:53 pm 21:53 Partly Cloudy 77 25 72 22.2 84 84 Calm 29.97 1015 10 16 0.00 0.00
10:53 pm 22:53 Mostly Clear 76 24.4 72 22.2 88 88 SSE 5 7 29.98 1015 10 16 0.00 0.00
11:53 pm 23:53 Clear 76 24.4 73 22.8 91 91 S 5 7 29.99 1016 10 16 0.00 0.00

Powered by AerisWeather